GFSNGP_2pvu_pres_210.txt.gz
Presure
198 198 190 193 197 197 198 184 205 189 206 195 209 209 203 202 191 191 194 191 185 180 175 178 177 184 164 162 183 205 209 207 207 204 202 199 172 205 167 195 154 194 205 209
196 195 186 193 197 195 187 193 198 191 185 193 196 194 195 195 193 193 194 190 189 151 202 207 203 199 199 184 182 190 191 189 204 162 210 204 195 198 205 207 212 213 203 199
182 183 194 186 182 187 193 191 191 178 176 178 191 181 176 150 162 188 172 176 180 178 174 193 187 195 200 202 191 190 188 197 203 204 206 201 214 216 215 215 212 208 212 213
165 167 180 179 183 194 171 192 187 187 185 171 169 174 188 183 177 171 185 174 151 172 173 177 202 201 188 197 201 205 211 201 190 195 220 221 218 218 216 214 212 212 210 208
167 181 167 161 188 180 189 193 178 192 189 192 182 159 160 159 167 187 194 190 187 193 202 207 205 205 209 212 205 204 201 201 204 211 215 213 207 200 201 211 214 216 225 222
200 202 195 181 184 178 188 168 179 171 177 188 187 192 196 194 196 195 197 200 202 203 200 199 201 201 208 206 204 205 205 204 207 209 206 216 206 202 219 217 211 215 225 227
183 175 197 189 196 196 199 169 194 192 189 192 195 203 205 205 209 207 208 207 209 204 203 205 206 212 207 189 197 192 207 200 205 207 213 216 217 217 214 217 214 225 229 233
186 182 191 193 196 188 198 184 195 197 199 194 190 198 201 196 204 191 193 199 198 195 202 205 209 214 214 203 217 210 212 212 216 214 212 219 232 233 232 248 234 233 238 254
177 191 188 187 184 196 191 183 194 203 199 191 197 201 199 191 189 200 202 198 202 201 199 216 212 204 206 212 216 220 221 223 221 225 235 232 261 261 264 264 279 281 287 290
198 197 196 197 168 185 191 191 190 199 201 205 205 203 203 191 207 203 190 201 211 204 207 203 221 221 206 217 217 223 257 240 234 231 241 279 278 284 293 309 326 333 333 335
186 197 192 189 193 194 196 194 193 196 198 203 203 205 197 201 209 210 210 203 199 217 213 208 215 221 229 227 277 277 273 277 279 276 286 315 321 336 345 239 352 209 300 305
198 206 192 203 191 190 196 195 206 206 206 217 198 199 211 213 219 216 209 215 221 216 221 225 255 273 261 275 288 293 284 292 335 351 353 362 373 316 407 419 415 408 405 402
189 187 195 193 193 203 206 218 189 202 218 230 203 212 220 214 214 218 220 241 250 247 274 278 276 279 289 295 302 372 374 392 409 411 422 420 410 409 409 396 385 380 376 371
203 227 219 202 213 217 221 233 235 233 212 207 242 245 237 236 255 262 265 273 278 286 299 301 357 392 396 416 420 415 419 419 415 408 397 387 377 374 384 404 418 409 398 399
223 225 228 229 230 223 231 235 223 235 243 246 254 260 263 269 270 275 278 282 356 413 413 414 418 420 416 414 409 400 389 381 398 414 436 425 413 409 406 403 397 395 408 459
233 229 237 235 240 244 245 244 244 247 254 259 266 273 276 293 397 400 421 419 417 412 411 409 405 393 383 373 370 441 457 453 447 455 460 451 420 402 394 405 394 397 431 416
243 243 244 246 248 248 249 255 262 268 269 280 273 437 425 420 411 414 414 409 401 396 386 378 369 363 461 478 498 494 484 472 449 437 439 456 446 415 397 396 429 399 407 403
251 254 258 258 263 268 273 276 278 273 314 425 280 320 417 408 401 397 390 385 374 362 355 402 446 455 420 387 373 377 398 449 451 426 394 389 396 424 430 422 393 425 408 396
277 280 282 282 296 326 438 370 312 368 408 404 403 398 394 388 379 369 358 354 409 454 454 448 411 371 416 425 418 410 407 406 404 399 390 388 390 397 398 397 397 401 400 400
368 429 424 415 411 405 403 400 399 396 391 390 383 371 360 358 440 447 416 392 449 451 390 363 410 382 367 353 379 390 391 392 392 393 396 400 408 413 420 435 438 447 440 440
396 394 392 390 388 289 383 382 379 370 361 358 458 449 432 376 376 452 454 418 373 422 388 367 356 343 337 330 341 366 384 384 390 404 409 410 443 470 480 478 476 478 481 479
380 378 376 373 366 361 359 356 386 448 424 380 363 431 451 446 427 397 397 397 369 357 344 338 332 330 324 323 318 362 380 389 412 397 388 386 418 524 538 523 510 501 484 460
360 357 351 346 344 392 429 389 370 357 410 465 463 445 408 406 407 371 364 362 346 336 327 322 318 315 321 343 315 362 384 395 399 400 385 368 361 354 355 356 353 359 353 343
341 339 398 399 397 373 386 390 375 356 363 372 375 371 372 371 367 350 339 330 323 316 315 312 312 326 337 338 329 363 373 379 381 382 383 386 390 395 405 411 402 399 393 391
384 377 371 352 370 396 397 373 368 329 321 326 331 331 332 331 332 331 330 332 331 335 340 346 347 339 336 338 336 349 342 335 333 332 332 334 337 342 355 364 371 372 371 368
361 347 352 357 359 354 329 320 315 305 298 296 302 313 331 332 333 332 339 346 341 338 340 343 341 339 336 338 322 337 325 319 319 317 319 349 352 349 338 327 325 329 343 352
342 348 348 337 320 315 304 294 293 295 300 302 308 330 337 344 342 337 344 344 344 343 342 339 338 340 345 345 325 335 321 318 315 336 367 345 344 345 346 347 347 348 340 319

GFSNGP_2pvu_pres_213.txt.gz
Presure
199 204 205 204 203 196 206 206 205 199 208 207 207 195 194 194 180 201 202 196 196 189 191 191 191 192 196 191 188 196 151 161 196 186 184 198 195 193 180 201 201 202 212 218
190 192 202 198 199 201 194 199 200 201 192 197 199 199 195 194 193 192 192 194 198 199 195 192 192 194 153 191 187 180 196 199 196 196 200 198 203 206 205 202 212 218 219 212
200 198 189 198 194 193 196 194 194 191 193 193 192 194 197 194 193 193 193 180 172 172 156 158 169 177 188 186 162 164 163 193 198 201 206 212 214 213 214 214 210 215 216 211
175 163 198 195 189 186 186 184 182 191 187 184 184 183 187 199 197 189 188 191 192 193 192 188 165 167 169 167 171 199 196 200 203 204 205 207 211 213 211 211 205 181 201 198
186 196 175 195 189 177 156 156 156 163 196 161 162 167 167 175 183 184 191 189 187 186 194 194 191 208 211 212 212 212 214 216 219 216 207 191 204 206 205 212 211 206 218 222
184 198 161 179 200 195 187 193 191 188 186 189 198 199 185 190 200 201 198 197 200 198 204 206 209 204 210 213 212 213 205 207 199 202 215 202 203 216 216 205 209 213 224 217
190 162 191 193 189 185 186 189 185 186 192 190 190 194 169 198 198 197 194 190 197 200 198 205 211 207 207 213 213 213 194 202 208 204 200 205 213 214 208 223 215 230 228 234
183 185 184 190 193 193 196 188 190 189 189 188 180 171 190 188 190 195 201 186 198 204 197 194 203 201 205 194 202 203 206 206 213 215 216 211 208 221 226 226 226 229 221 235
186 184 185 189 179 188 180 185 192 188 199 197 189 188 192 192 196 193 203 202 196 194 204 208 204 202 202 207 203 214 220 215 209 220 224 226 227 227 228 278 280 289 293 289
183 205 193 186 175 168 177 186 198 196 190 163 195 203 201 190 198 202 200 202 203 207 193 203 213 197 218 208 224 213 219 235 227 219 227 240 279 287 285 298 320 326 363 385
196 192 189 180 180 198 194 187 205 213 195 190 199 199 195 194 199 207 207 204 207 197 207 218 218 220 226 246 237 235 264 250 280 282 300 308 317 364 426 427 421 421 413 409
180 188 196 204 207 210 198 206 205 205 204 199 195 202 202 198 214 212 216 122 223 224 214 219 230 231 252 262 266 278 288 296 329 342 413 434 428 422 420 416 411 402 397 395
205 211 190 217 218 210 207 211 193 201 209 206 203 201 230 222 225 228 228 228 234 240 245 258 263 262 272 287 291 287 441 436 429 428 428 424 415 408 400 383 382 372 429 423
223 216 220 221 223 214 216 224 220 217 229 234 227 231 238 242 245 248 254 258 260 262 264 271 278 292 302 304 432 430 428 424 415 405 397 416 478 471 467 461 451 460 443 426
224 228 231 236 232 230 236 233 229 238 244 244 246 248 251 252 257 261 265 271 273 281 289 302 326 320 322 422 415 408 397 390 430 457 432 412 397 394 473 456 445 450 447 429
240 237 236 237 237 239 248 253 253 245 247 260 266 264 264 266 271 270 284 301 305 411 434 423 417 412 404 393 388 455 463 446 418 398 382 414 413 465 446 442 455 442 419 403
245 253 258 262 260 259 260 259 261 265 265 269 272 274 281 285 287 296 349 426 419 410 402 399 392 383 475 469 471 456 415 394 395 388 389 398 408 410 408 407 404 395 391 387
262 266 267 267 265 269 273 275 277 278 283 288 290 300 295 329 427 419 409 402 391 383 378 467 455 467 461 434 404 396 377 358 357 380 392 397 399 399 400 399 399 398 393 391
278 279 282 285 286 287 293 300 303 302 295 308 425 419 414 405 394 387 383 428 452 439 403 443 443 408 374 390 370 353 346 334 336 388 396 410 412 411 413 427 455 462 460 450
327 316 314 338 329 373 354 360 344 401 410 407 398 389 383 377 456 461 418 389 456 463 408 378 396 379 360 348 345 334 335 328 364 411 409 393 384 381 464 482 505 505 492 482
401 377 383 402 406 401 404 402 398 389 381 374 384 485 414 391 386 470 457 401 404 404 389 374 358 345 337 330 326 320 344 332 397 404 405 406 380 365 363 367 487 515 514 497
392 393 392 392 390 382 378 374 368 360 409 401 394 367 364 439 428 419 414 386 374 361 355 345 336 331 326 319 317 332 336 375 386 381 380 383 389 398 408 359 349 354 354 353
374 374 370 364 358 356 354 397 402 390 397 378 368 376 369 361 353 355 356 343 335 328 325 323 321 321 322 343 344 338 360 355 346 343 342 344 347 356 375 385 388 393 396 387
352 346 344 345 398 399 377 371 401 387 379 354 335 331 333 323 323 328 326 328 340 345 349 351 352 348 344 343 342 335 347 337 328 322 321 321 346 331 328 330 351 366 368 368
390 383 380 375 357 360 363 373 360 335 323 312 305 300 307 327 337 343 345 344 343 346 347 346 345 349 348 346 338 334 339 325 319 318 359 363 352 350 350 350 350 328 328 352
358 363 375 355 360 356 346 324 314 303 296 294 300 298 296 304 357 350 346 342 343 342 342 350 343 335 334 344 360 335 336 323 319 330 340 338 331 332 339 349 351 349 349 335
355 336 362 384 348 321 312 298 290 292 289 287 288 289 289 290 296 312 345 340 334 332 331 330 331 343 364 371 375 338 334 324 317 337 318 310 308 311 336 342 348 355 360 354

GFSNGP_2pvu_pres_219.txt.gz
Presure
212 207 208 210 222 237 248 255 253 241 219 181 177 173 176 172 174 179 163 157 160 167 171 171 205 198 179 209 209 194 196 193 192 193 194 200 202 200 197 182 170 165 196 194
197 184 211 202 211 210 205 210 207 209 209 209 204 198 195 195 180 169 169 169 173 176 198 173 209 203 195 193 192 190 185 196 198 180 180 188 196 196 197 202 206 204 201 187
201 181 205 190 209 198 207 193 194 191 192 194 191 186 185 169 170 164 165 173 164 181 180 192 191 184 188 199 202 195 185 197 192 189 178 175 184 186 188 200 202 204 205 205
174 187 206 181 199 203 202 197 182 186 188 186 188 189 187 192 207 197 188 182 190 191 195 201 201 191 177 177 192 197 163 174 196 193 197 198 200 205 206 203 205 210 214 206
183 176 179 168 182 191 199 198 197 199 205 200 205 190 188 187 197 200 198 199 198 184 176 170 197 200 190 182 170 184 192 195 198 195 202 203 200 200 199 201 199 206 204 205
159 175 171 176 179 182 193 188 184 184 186 185 186 193 193 188 203 199 198 198 193 192 191 192 195 197 194 195 203 202 194 191 190 192 198 201 203 201 198 204 213 214 211 214
189 193 188 196 180 176 185 170 185 194 172 199 193 172 182 197 204 191 179 191 191 192 185 179 188 190 193 193 193 187 188 195 202 204 202 202 204 206 209 208 206 213 210 216
193 181 187 187 183 182 171 162 194 186 187 177 186 189 189 179 161 188 190 194 198 186 184 188 183 185 201 201 200 200 201 191 202 211 205 203 205 205 212 217 222 223 224 223
181 194 183 198 187 191 188 183 195 191 163 189 185 185 187 154 191 189 190 189 188 185 188 189 189 198 187 190 191 200 190 196 200 202 204 210 216 217 218 227 228 236 236 242
188 179 182 186 191 192 198 200 198 201 193 193 190 187 174 186 200 187 183 190 190 191 196 196 195 197 199 199 192 196 204 204 208 215 216 226 230 236 237 239 249 252 264 282
192 191 188 165 182 192 192 192 192 197 200 193 187 190 195 191 194 197 187 185 193 195 191 191 208 213 206 207 210 216 221 225 228 235 234 239 248 260 276 300 327 347 408 436
195 194 190 196 194 190 192 199 198 194 194 201 194 192 191 184 182 189 200 199 196 199 204 206 209 214 218 224 227 228 238 247 244 254 261 260 306 343 292 418 432 479 491 477
201 202 206 201 199 200 202 201 201 201 199 202 201 200 202 204 209 212 212 214 214 212 214 220 223 226 229 239 240 250 253 265 278 297 351 371 440 432 510 497 475 448 432 418
205 202 202 204 203 204 205 209 207 209 204 202 204 206 208 213 214 215 214 216 220 224 228 234 241 241 250 251 265 282 297 319 385 440 448 501 486 467 447 433 415 398 386 380
227 225 222 222 221 221 223 222 218 214 216 218 219 218 218 223 223 225 227 227 233 240 251 254 262 269 281 297 317 360 409 449 499 489 490 469 442 419 400 387 376 367 363 376
239 236 233 232 232 233 233 228 226 228 232 231 230 236 233 237 242 239 242 248 250 263 282 286 294 324 350 427 444 501 505 503 498 469 437 410 385 375 367 355 400 437 431 417
255 249 249 248 250 253 257 252 248 244 239 245 248 251 258 260 257 256 270 289 294 308 320 341 372 445 437 518 512 498 473 446 419 394 377 369 360 344 344 408 404 420 436 419
293 290 288 286 284 280 279 277 275 279 285 288 286 285 283 285 291 301 319 328 349 379 438 426 489 507 484 454 432 411 397 391 380 364 352 345 335 343 376 362 358 365 435 412
324 321 313 303 282 288 293 290 294 291 277 281 302 319 332 340 347 355 406 439 427 414 421 429 428 404 427 422 404 385 371 360 351 346 337 331 351 364 348 338 336 340 352 442
340 339 337 337 338 338 337 338 340 342 345 347 352 354 360 429 431 413 421 405 393 419 403 384 384 361 377 364 356 348 344 343 342 345 359 357 355 343 331 332 372 366 364 346
313 313 315 276 317 316 315 323 351 356 336 380 436 418 412 417 407 396 387 415 404 382 359 348 336 324 322 350 354 358 365 370 359 354 350 345 346 328 326 349 350 356 357 354
315 315 314 313 312 314 346 361 424 413 407 396 401 397 389 384 385 424 403 369 354 338 328 332 353 356 356 357 356 361 370 362 356 351 346 344 330 321 345 329 334 345 351 352
394 392 393 389 397 396 400 391 390 388 384 380 376 390 412 422 418 361 342 324 314 305 307 366 359 353 350 348 348 348 341 340 340 355 345 337 320 335 320 320 325 333 352 354
362 364 369 371 375 374 370 368 364 362 392 410 390 414 390 357 324 317 304 298 297 293 301 356 352 347 340 340 339 338 351 369 383 356 343 322 333 310 302 310 311 315 326 356
358 358 355 351 350 348 351 384 389 392 375 375 362 347 321 312 301 294 292 290 291 293 305 311 347 344 346 348 353 350 364 372 376 346 333 329 312 297 303 305 313 311 321 351
334 334 356 368 370 375 380 383 383 383 354 336 322 307 301 292 292 284 280 282 286 290 306 299 355 349 347 348 344 354 362 367 349 339 324 314 298 303 299 307 310 311 328 358
353 355 358 361 365 365 366 372 353 337 319 307 303 293 289 287 280 280 275 285 286 289 289 304 320 348 345 338 346 357 363 351 336 319 315 299 301 301 300 308 311 312 339 361

GFSNGP_2pvu_pres_225.txt.gz
Presure
177 194 190 214 202 208 218 312 324 310 311 298 262 246 242 233 228 219 213 210 207 206 200 178 167 175 179 171 171 172 162 175 174 194 186 168 178 196 214 200 174 197 211 182
186 191 186 191 206 205 203 208 224 312 312 314 307 264 246 238 232 228 224 223 221 219 217 205 192 174 171 170 170 166 173 172 163 197 177 182 198 193 201 182 211 185 201 210
191 180 195 178 201 185 196 200 210 206 221 232 314 313 298 300 257 240 236 233 232 227 223 219 216 218 223 236 255 212 186 202 190 181 197 197 198 184 202 205 181 208 201 205
174 197 197 199 175 193 191 193 203 199 199 202 212 220 258 309 305 305 303 300 280 271 264 261 262 269 235 221 208 201 199 191 201 196 199 190 208 198 185 202 198 202 190 199
193 186 179 198 193 199 182 192 182 184 190 193 208 201 201 209 213 214 215 216 216 216 214 212 207 205 203 204 204 199 195 196 199 188 197 192 185 200 202 179 195 193 185 198
189 196 196 185 184 187 208 191 190 178 194 184 187 195 202 193 190 198 199 198 200 200 200 199 196 194 194 194 194 193 191 200 191 189 195 203 195 183 185 184 184 198 200 206
199 200 205 185 192 172 178 182 191 194 186 179 175 182 188 195 190 187 189 190 192 192 190 193 200 194 194 196 195 195 195 200 199 190 182 188 191 185 176 193 198 209 198 203
208 210 209 201 201 186 190 197 199 194 170 197 186 182 179 181 179 183 187 186 185 190 198 200 200 198 196 195 190 185 182 184 189 191 189 196 197 205 209 208 205 209 213 210
207 210 207 202 210 197 197 200 198 198 192 189 190 195 188 187 179 179 189 185 169 181 179 173 177 181 183 186 189 187 180 180 169 195 194 196 209 204 206 213 215 212 216 216
208 215 211 208 211 210 199 201 201 194 199 198 195 194 195 199 197 195 195 192 176 175 177 179 174 176 183 183 179 196 203 200 199 196 206 204 206 212 205 211 215 216 222 223
224 222 218 219 215 211 207 208 205 208 201 201 203 199 194 192 194 196 155 191 194 196 196 199 201 197 196 197 198 198 193 199 205 208 208 206 205 207 213 217 225 230 238 248
235 241 234 230 219 216 213 206 205 207 206 202 204 205 205 197 198 201 193 193 196 198 195 196 199 201 201 199 203 205 206 206 211 211 209 213 215 216 227 234 241 252 265 363
255 254 247 247 233 223 222 219 210 211 210 191 194 202 207 209 206 203 204 205 203 202 204 205 205 205 205 200 204 214 211 213 204 211 218 223 228 237 246 253 269 486 473 454
285 274 251 256 258 244 227 226 216 217 218 204 207 204 209 209 203 207 206 205 205 205 206 207 209 210 211 209 213 214 214 220 226 228 235 242 250 264 321 461 392 423 406 406
305 301 294 284 250 255 256 246 233 220 215 220 217 222 221 202 202 203 203 206 208 210 212 212 212 214 216 218 221 223 227 233 240 248 264 356 471 401 400 441 426 414 399 377
284 288 316 301 278 291 289 272 260 257 243 227 218 227 228 233 225 219 216 216 218 219 221 221 222 228 232 235 240 246 257 327 365 325 418 365 431 411 373 388 375 365 357 358
274 282 283 336 331 310 286 288 295 298 295 275 269 268 265 264 259 255 253 249 247 248 252 254 256 308 311 336 341 352 366 385 335 347 284 274 391 383 375 364 359 337 388 383
279 271 273 284 281 282 324 322 327 319 313 311 288 296 296 298 297 278 268 310 314 342 340 337 340 346 351 361 373 367 339 349 424 410 394 381 369 365 376 377 375 374 369 364
264 334 286 275 273 269 266 272 275 276 279 307 317 334 333 336 339 312 311 310 312 304 272 268 272 266 276 271 309 373 426 411 394 375 362 369 380 378 374 375 376 379 367 356
321 324 325 326 286 280 328 283 265 273 277 274 271 268 266 264 266 275 271 258 263 319 328 277 330 338 340 403 433 415 394 372 355 338 323 367 368 364 361 354 348 360 354 343
314 316 317 320 324 326 328 331 332 271 319 335 282 271 270 272 335 338 338 334 334 334 335 335 407 401 436 417 392 367 342 324 318 319 364 363 360 356 364 398 351 355 339 330
318 313 313 313 314 316 317 320 322 325 326 327 327 328 329 329 330 333 333 329 363 406 399 400 420 411 388 358 328 320 316 308 318 367 364 368 370 378 395 387 353 339 326 314
346 343 334 320 313 312 312 311 310 310 312 315 320 323 325 337 386 396 397 392 386 386 428 406 380 346 321 312 306 304 301 312 360 365 362 362 372 385 378 346 335 321 311 309
355 355 354 354 356 352 352 352 372 401 399 402 395 389 385 385 386 377 377 413 415 394 375 341 318 307 301 295 294 295 296 315 368 354 365 377 379 361 337 329 316 307 309 315
362 364 366 366 367 369 371 370 371 370 370 369 366 366 371 372 397 397 392 378 362 338 316 305 297 292 291 285 292 293 317 325 355 365 371 367 346 330 319 308 308 307 313 317
352 353 353 355 354 353 352 349 348 348 354 370 376 382 382 376 373 373 350 338 318 303 295 290 285 283 286 286 289 293 313 350 361 371 361 335 327 313 303 310 303 312 313 318
333 332 332 332 331 334 346 351 349 352 352 355 356 361 367 359 341 330 322 307 295 292 283 280 284 283 282 288 291 317 308 353 368 357 331 324 309 302 310 301 304 324 319 322

GFSNGP_2pvu_pres_228.txt.gz
Presure
189 202 177 191 189 202 214 206 217 223 322 326 327 338 324 248 230 221 215 212 209 206 204 203 204 206 204 202 202 197 164 164 173 173 174 193 191 187 165 180 179 184 220 191
188 194 193 196 194 196 205 197 207 205 218 232 321 323 321 322 284 234 226 220 216 212 210 210 209 208 203 202 204 204 205 204 206 209 193 193 174 179 176 256 228 225 206 201
203 197 187 180 199 186 204 203 202 194 213 206 216 241 315 314 316 309 255 239 233 228 224 221 222 225 226 226 225 223 221 220 220 220 212 213 219 257 235 232 222 202 199 176
199 206 195 180 200 202 195 194 194 188 203 197 199 209 212 225 277 314 311 302 290 277 266 255 250 243 239 236 235 232 229 227 224 220 244 264 239 229 219 206 203 201 203 198
202 196 198 198 191 194 188 194 187 189 207 200 197 202 198 200 204 211 219 232 257 315 307 302 299 298 287 283 283 283 285 278 269 244 226 217 212 203 206 197 200 198 193 207
206 200 196 186 193 196 204 188 191 206 202 208 201 209 188 193 197 203 206 202 204 208 208 210 216 219 222 223 223 221 219 216 212 205 193 202 201 199 199 196 209 195 201 205
208 203 196 191 195 201 201 184 199 193 200 197 189 188 199 200 190 190 190 188 195 203 201 199 200 202 202 202 202 202 201 199 197 195 197 203 208 205 199 197 201 194 181 190
213 215 198 189 202 197 197 190 197 201 209 206 170 195 191 190 206 189 196 196 193 191 192 193 191 191 192 192 192 194 196 196 196 198 201 203 204 202 190 187 192 184 171 182
223 224 215 210 209 206 201 204 203 198 200 201 202 204 183 201 174 202 173 177 186 183 182 181 180 181 183 185 190 193 191 186 182 181 182 185 193 201 200 187 189 200 204 180
241 239 231 221 216 213 208 206 206 200 202 202 202 202 206 209 206 185 211 206 192 188 186 183 176 178 178 182 173 171 170 176 183 184 188 189 185 190 189 208 209 212 215 218
261 253 246 235 227 219 216 209 210 210 206 205 203 207 201 204 210 203 204 205 206 204 205 160 200 199 196 191 191 197 191 200 202 205 208 209 210 206 210 216 217 219 220 223
281 272 225 250 244 235 224 218 214 209 208 204 209 204 206 204 206 209 203 202 204 208 205 204 205 206 208 208 208 206 206 208 209 210 212 213 214 216 218 218 222 225 226 230
288 287 280 272 250 249 246 235 222 218 212 210 208 210 210 211 210 210 209 203 204 194 207 210 209 205 208 212 213 213 215 216 214 212 215 215 217 221 215 224 228 234 238 238
305 293 290 286 279 242 251 251 247 234 232 223 222 222 219 221 218 216 216 214 207 205 204 202 202 204 205 204 206 203 203 216 216 216 217 221 226 229 227 236 237 245 337 375
306 299 297 297 289 284 284 281 270 259 253 245 233 229 229 225 230 226 224 221 222 220 216 215 215 215 216 216 217 218 221 224 227 228 230 229 237 242 247 351 404 360 300 285
282 310 343 310 303 303 293 289 284 286 286 283 276 267 259 246 244 247 244 240 232 229 228 227 216 219 224 225 225 229 232 235 237 244 246 246 293 401 359 316 292 271 362 379
297 283 262 295 294 286 284 285 304 303 298 299 300 299 295 293 293 282 268 258 261 260 248 240 239 243 247 247 247 246 249 275 357 359 374 319 305 292 319 399 391 379 393 363
330 324 301 284 273 268 284 285 284 284 282 281 279 278 315 330 324 321 317 291 292 290 291 308 269 329 331 341 347 303 355 341 299 289 279 290 423 404 391 378 358 334 334 375
326 326 321 315 308 291 283 283 280 278 278 280 277 274 280 282 288 292 313 347 349 321 317 318 313 297 292 288 286 281 273 283 350 273 353 407 391 373 349 333 325 357 370 365
317 319 322 323 324 324 315 294 283 273 263 267 280 279 275 270 266 266 274 273 268 266 265 265 270 281 281 276 268 262 349 369 430 411 389 369 340 332 325 326 377 376 389 400
317 313 313 315 320 320 323 326 327 327 328 329 330 276 271 278 277 277 278 276 281 288 339 328 276 337 341 344 354 412 405 413 389 363 334 328 322 317 321 374 372 391 398 386
341 346 345 325 315 314 315 316 317 318 319 320 323 326 328 329 329 327 325 324 326 327 329 330 333 366 412 403 412 413 385 353 329 320 313 308 307 320 367 381 391 389 363 342
351 352 348 340 333 330 324 318 314 313 314 315 317 318 317 318 321 321 321 320 326 382 410 407 400 394 388 409 381 347 324 313 306 303 302 303 348 366 384 386 369 342 331 318
350 348 348 349 352 353 353 354 353 352 352 353 352 352 354 370 402 402 397 396 386 388 385 383 418 400 377 342 320 309 304 295 294 295 296 334 371 384 371 347 334 319 312 309
361 364 368 370 371 372 372 373 373 382 380 379 378 376 373 374 377 371 372 382 402 407 404 387 368 340 319 307 301 294 291 290 289 294 321 367 380 360 336 323 312 310 305 310
347 347 347 348 348 350 351 353 354 355 357 357 354 355 364 373 385 391 391 390 390 368 358 341 319 308 299 292 289 285 286 287 295 321 339 376 352 331 316 306 313 302 307 326
335 336 338 339 338 338 337 337 335 334 349 354 351 357 356 358 367 375 370 355 347 335 322 308 298 293 285 282 282 281 283 286 291 308 372 367 330 313 302 309 305 299 305 315